#timestamp,LO_Frequency,Hit,StdDev 
1653519615.2,286047000.4,P
1653519635.9,286047000.6,N
1653519655.7,286047002.8,P
1653519675.6,286047000.3,N
1653519695.4,286046999.8,N
1653519715.2,286047000.5,N
1653519735.1,286047001.0,N
1653519736.0,286047001.0,N
1653519755.8,286047000.5,N
1653519775.7,286047000.5,N
1653519795.5,286047002.4,N
1653519815.3,286047002.7,N
1653519835.2,286047002.6,N
1653519855.0,286047002.2,N
1653519855.9,286047002.2,N
1653519875.8,286047002.4,N
1653519895.6,286047002.3,N
1653519915.4,286047002.2,N
1653519935.3,286047001.9,N
1653519955.1,286047002.1,N
1653519975.8,286047002.4,N
1653519995.7,286047002.4,N
1653520015.5,286047002.8,N
1653520035.4,286047001.8,N
1653520055.2,286046999.8,N
1653520075.0,286047002.8,N
1653520075.9,286047002.8,N
1653520125.8,286047002.3,E
1653520135.7,286047002.4,N
1653520155.6,286046999.8,P
1653520175.4,286047002.7,N
1653520195.2,286047000.6,N
1653520215.1,286047000.1,N
1653520216.0,286047000.1,N
1653520235.8,286047000.0,N
1653520255.6,286047000.1,N
1653520275.5,286047000.3,N
1653520295.3,286047000.0,N
1653520315.2,286047000.7,N
1653520335.0,286047000.6,N
1653520335.9,286047000.6,N
1653520355.7,286047000.4,N
1653520375.6,286046999.4,N
1653520395.4,286046998.6,N
1653520415.3,286046999.0,N
1653520435.1,286046999.0,N
1653520436.0,286046999.0,N
1653520455.8,286047000.8,N
1653520475.7,286047000.3,N
1653520495.5,286047001.1,N
1653520515.3,286047001.0,N
1653520535.2,286047000.4,N
1653520555.0,286047000.5,N
1653520555.9,286047000.5,N
1653520575.8,286046998.2,N
1653520595.6,286046998.5,N
1653520615.4,286047001.0,N
1653520635.3,286047000.3,N
1653520655.1,286047000.4,N
1653520675.9,286047000.9,N
1653520695.7,286047000.1,N
1653520715.5,286047000.3,N
1653520735.4,286047000.3,N
1653520755.2,286047000.0,N
1653520775.0,286047002.8,Y
1653520775.9,286047002.8,P
1653520795.8,286046999.8,N
1653520815.6,286047001.2,N
1653520835.5,286047001.0,N
1653520855.3,286047000.5,N
1653520875.1,286047000.6,N
1653520895.9,286047001.0,N
1653520915.7,286046998.1,N
1653520935.5,286046998.4,N
1653520955.4,286046998.1,N
1653520975.2,286046998.2,N
1653520995.1,286047001.1,N
1653520996.0,286047001.1,N
1653521015.8,286046999.0,N
1653521035.6,286046998.9,N
1653521055.5,286046999.3,N
1653521075.3,286046998.9,N
1653521095.1,286046998.2,N
1653521115.9,286047001.1,N
1653521135.7,286047000.8,N
1653521155.6,286047000.8,N
1653521175.4,286047001.2,N
1653521195.2,286046998.5,N
1653521215.1,286046999.1,N
1653521216.0,286046999.1,N
1653521235.8,286046998.9,N
1653521255.7,286047001.0,N
1653521275.5,286046998.2,N
1653521295.3,286047001.1,N
1653521315.2,286046998.2,N
1653521335.0,286047001.0,N
1653521335.9,286047001.0,N
1653521355.7,286047001.0,N
1653521375.6,286046998.5,N
1653521395.4,286047001.1,N
1653521415.3,286047000.0,N
1653521435.1,286046999.9,N
1653521436.0,286046999.9,N
1653521455.8,286047000.5,N
1653521475.7,286046998.1,N
1653521495.5,286047000.9,N
1653521515.3,286046999.9,N
1653521535.2,286047000.1,N
1653521555.0,286046999.7,N
1653521555.9,286046999.7,N
1653521575.8,286046999.7,N
1653521595.6,286047001.6,N
1653521615.4,286047001.7,N
1653521635.3,286047001.6,N
1653521655.1,286047001.6,N
1653521675.9,286047004.4,Y
1653521695.7,286047002.0,P
1653521715.5,286046999.7,N
1653521735.4,286047002.3,N
1653521755.2,286047002.3,N
1653521775.0,286047002.4,N
1653521775.9,286047002.4,N
1653521795.8,286047000.0,N
1653521815.6,286047000.5,N
1653521835.5,286047000.8,N
1653521855.3,286047000.3,N
1653521875.1,286046999.8,N
1653521895.9,286047000.4,N
1653521915.7,286046999.2,N
1653521935.6,286046996.5,Y
1653521955.4,286046995.3,P
1653521975.2,286046996.1,N
1653521995.1,286046995.3,N
1653521996.0,286046995.3,N
1653522015.8,286046997.8,N
1653522035.6,286046997.5,N
1653522055.5,286046999.6,N
1653522075.3,286046999.0,N
1653522095.2,286046999.1,N
1653522115.9,286046999.6,N
1653522135.7,286046997.4,N
1653522155.6,286046995.6,N
1653522175.4,286046993.4,Y
1653522195.2,286046997.7,P
1653522215.1,286046996.8,P
1653522216.0,286046996.8,P
1653522235.8,286046999.6,N
1653522255.7,286046999.6,N
1653522275.5,286046999.0,N
1653522295.3,286046997.0,N
1653522315.2,286046996.9,N
1653522335.0,286046999.0,N
1653522335.9,286046999.0,N
1653522355.8,286046997.1,N
1653522375.6,286046994.9,Y
1653522395.4,286047000.6,P
1653522415.3,286047000.6,N
1653522435.1,286047000.7,N
1653522455.8,286046998.2,N
1653522475.7,286046998.6,N
1653522495.5,286046996.7,N
1653522515.4,286046998.8,N
1653522535.2,286046996.9,N
1653522555.0,286046996.5,N
1653522555.9,286046996.5,N
1653522575.8,286046999.1,N
1653522595.6,286047000.5,N
1653522615.4,286047000.7,N
1653522635.3,286046998.8,N
1653522655.1,286046998.5,N
1653522675.9,286046998.9,N
1653522695.7,286046999.6,N
1653522715.5,286046996.5,N
1653522735.4,286046997.0,N
1653522755.2,286046999.6,N
1653522775.0,286046998.9,N
1653522775.9,286046998.9,N
1653522795.8,286046998.3,N
1653522815.6,286046998.3,N
1653522835.5,286046998.6,N
1653522855.3,286046999.1,N
1653522875.1,286046997.3,N
1653522895.9,286046999.1,N
1653522915.7,286046998.5,N
1653522935.5,286046998.5,N
1653522955.4,286046998.5,N
1653522975.2,286047001.0,N
1653522995.1,286047000.7,N
1653522996.0,286047000.7,N
1653523015.8,286047001.2,N
1653523035.6,286047001.1,N
1653523055.5,286046999.0,N
1653523075.3,286046998.7,N
1653523095.1,286046998.8,N
1653523115.9,286046999.0,N
1653523135.7,286046998.7,N
1653523155.6,286046999.2,N
1653523175.4,286046999.3,N
1653523195.2,286046998.2,N
